Time,TemperatureF,DewpointF,PressureIn,WindDirection,WindDirectionDegrees,WindSpeedMPH,WindSpeedGustMPH,Humidity,HourlyPrecipIn,Conditions,Clouds,dailyrainin,SoftwareType,DateUTC
2013-02-22 00:00:00,18.9,16.7,30.77,ENE,60,2.0,6.0,91,0.00,,,0.00,meteohub,2013-02-22 05:00:00,
2013-02-22 00:01:00,18.9,16.7,30.77,North,5,3.0,6.0,91,0.00,,,0.00,meteohub,2013-02-22 05:01:00,
2013-02-22 00:02:00,18.9,16.7,30.77,North,359,4.0,6.0,91,0.00,,,0.00,meteohub,2013-02-22 05:02:00,
2013-02-22 00:07:00,18.9,16.7,30.78,NE,47,2.0,6.0,91,0.00,,,0.00,meteohub,2013-02-22 05:07:00,
2013-02-22 00:12:00,18.9,16.7,30.77,NNE,26,3.0,5.0,91,0.00,,,0.00,meteohub,2013-02-22 05:12:00,
2013-02-22 00:17:00,18.9,16.7,30.78,North,357,2.0,5.0,91,0.00,,,0.00,meteohub,2013-02-22 05:17:00,
2013-02-22 00:22:00,18.9,16.7,30.77,NNE,13,3.0,6.0,91,0.00,,,0.00,meteohub,2013-02-22 05:22:00,
2013-02-22 00:27:00,18.9,16.7,30.77,NNE,19,2.0,6.0,91,0.00,,,0.00,meteohub,2013-02-22 05:27:00,
2013-02-22 00:32:00,18.7,16.5,30.77,NNE,12,1.0,6.0,91,0.00,,,0.00,meteohub,2013-02-22 05:32:00,
2013-02-22 00:37:00,18.7,16.5,30.77,NNE,29,2.0,4.0,91,0.00,,,0.00,meteohub,2013-02-22 05:37:00,
2013-02-22 00:42:00,18.7,16.5,30.77,NNE,20,2.0,4.0,91,0.00,,,0.00,meteohub,2013-02-22 05:42:00,
2013-02-22 00:47:00,18.7,16.5,30.77,North,5,0.0,4.0,91,0.00,,,0.00,meteohub,2013-02-22 05:47:00,
2013-02-22 00:52:00,18.7,16.5,30.76,NNE,22,0.0,4.0,91,0.00,,,0.00,meteohub,2013-02-22 05:52:00,
2013-02-22 00:57:00,18.9,16.7,30.76,NNE,30,1.0,2.0,91,0.00,,,0.00,meteohub,2013-02-22 05:57:00,
2013-02-22 01:02:00,18.9,16.7,30.76,NNE,26,0.0,2.0,91,0.00,,,0.00,meteohub,2013-02-22 06:02:00,
2013-02-22 01:07:00,18.9,16.7,30.75,ENE,60,1.0,2.0,91,0.00,,,0.00,meteohub,2013-02-22 06:07:00,
2013-02-22 01:12:00,18.9,16.7,30.76,NE,39,0.0,2.0,91,0.00,,,0.00,meteohub,2013-02-22 06:12:00,
2013-02-22 01:17:00,18.9,16.7,30.75,North,0,0.0,2.0,91,0.00,,,0.00,meteohub,2013-02-22 06:17:00,
2013-02-22 01:22:00,18.9,16.7,30.77,North,0,0.0,2.0,91,0.00,,,0.00,meteohub,2013-02-22 06:22:00,
2013-02-22 01:27:00,18.9,16.7,30.77,North,0,0.0,2.0,91,0.00,,,0.00,meteohub,2013-02-22 06:27:00,
2013-02-22 01:32:00,18.9,16.7,30.78,West,269,2.0,2.0,91,0.00,,,0.00,meteohub,2013-02-22 06:32:00,
2013-02-22 01:37:00,18.9,16.7,30.77,WSW,257,1.0,3.0,91,0.00,,,0.00,meteohub,2013-02-22 06:37:00,
2013-02-22 01:42:00,18.9,16.7,30.77,West,259,0.0,3.0,91,0.00,,,0.00,meteohub,2013-02-22 06:42:00,
2013-02-22 01:47:00,18.9,16.7,30.77,NNW,339,1.0,3.0,91,0.00,,,0.00,meteohub,2013-02-22 06:47:00,
2013-02-22 01:52:00,18.9,16.7,30.77,North,359,1.0,2.0,91,0.00,,,0.00,meteohub,2013-02-22 06:52:00,
2013-02-22 01:57:00,19.0,16.9,30.77,North,358,1.0,2.0,91,0.00,,,0.00,meteohub,2013-02-22 06:57:00,
2013-02-22 02:02:00,19.2,17.1,30.76,NE,56,0.0,3.0,91,0.00,,,0.00,meteohub,2013-02-22 07:02:00,
2013-02-22 02:07:00,19.2,17.1,30.76,North,8,2.0,3.0,91,0.00,,,0.00,meteohub,2013-02-22 07:07:00,
2013-02-22 02:12:00,19.4,17.2,30.76,ESE,117,0.0,4.0,91,0.00,,,0.00,meteohub,2013-02-22 07:12:00,
2013-02-22 02:17:00,19.4,17.2,30.76,ESE,113,0.0,4.0,91,0.00,,,0.00,meteohub,2013-02-22 07:17:00,
2013-02-22 02:22:00,19.4,17.2,30.76,ESE,112,0.0,3.0,91,0.00,,,0.00,meteohub,2013-02-22 07:22:00,
2013-02-22 02:27:00,19.4,17.2,30.77,NNE,30,0.0,0.0,91,0.00,,,0.00,meteohub,2013-02-22 07:27:00,
2013-02-22 02:32:00,19.4,17.2,30.77,ESE,108,2.0,0.0,91,0.00,,,0.00,meteohub,2013-02-22 07:32:00,
2013-02-22 02:37:00,19.2,17.1,30.77,SSW,195,2.0,3.0,91,0.00,,,0.00,meteohub,2013-02-22 07:37:00,
2013-02-22 02:42:00,19.0,16.9,30.77,SSE,166,1.0,3.0,91,0.00,,,0.00,meteohub,2013-02-22 07:42:00,
2013-02-22 02:47:00,19.0,16.9,30.77,SW,225,3.0,3.0,91,0.00,,,0.00,meteohub,2013-02-22 07:47:00,
2013-02-22 02:52:00,19.0,16.9,30.77,South,177,0.0,3.0,91,0.00,,,0.00,meteohub,2013-02-22 07:52:00,
2013-02-22 02:57:00,19.2,17.1,30.77,SW,232,1.0,3.0,91,0.00,,,0.00,meteohub,2013-02-22 07:57:00,
2013-02-22 03:02:00,19.2,17.1,30.77,SW,232,0.0,3.0,91,0.00,,,0.00,meteohub,2013-02-22 08:02:00,
2013-02-22 03:07:00,19.2,17.1,30.77,SW,215,0.0,2.0,91,0.00,,,0.00,meteohub,2013-02-22 08:07:00,
2013-02-22 03:12:00,19.2,17.1,30.77,SW,214,0.0,1.0,91,0.00,,,0.00,meteohub,2013-02-22 08:12:00,
2013-02-22 03:17:00,19.4,17.2,30.78,SW,231,1.0,0.0,91,0.00,,,0.00,meteohub,2013-02-22 08:17:00,
2013-02-22 03:22:00,19.4,17.2,30.78,SW,225,1.0,2.0,91,0.00,,,0.00,meteohub,2013-02-22 08:22:00,
2013-02-22 03:27:00,19.4,17.2,30.77,SE,136,3.0,3.0,91,0.00,,,0.00,meteohub,2013-02-22 08:27:00,
2013-02-22 03:32:00,19.6,17.4,30.77,ESE,115,0.0,4.0,91,0.00,,,0.00,meteohub,2013-02-22 08:32:00,
2013-02-22 03:37:00,19.6,17.4,30.77,South,183,2.0,4.0,91,0.00,,,0.00,meteohub,2013-02-22 08:37:00,
2013-02-22 03:42:00,19.4,17.2,30.77,SE,136,2.0,4.0,91,0.00,,,0.00,meteohub,2013-02-22 08:42:00,
2013-02-22 03:47:00,19.4,17.2,30.77,NE,40,0.0,3.0,91,0.00,,,0.00,meteohub,2013-02-22 08:47:00,
2013-02-22 03:52:00,19.4,17.2,30.77,NE,56,0.0,3.0,91,0.00,,,0.00,meteohub,2013-02-22 08:52:00,
2013-02-22 03:57:00,19.4,17.2,30.77,SE,135,0.0,2.0,91,0.00,,,0.00,meteohub,2013-02-22 08:57:00,
2013-02-22 04:02:00,19.4,17.2,30.77,SE,134,0.0,1.0,91,0.00,,,0.00,meteohub,2013-02-22 09:02:00,
2013-02-22 04:07:00,19.4,17.2,30.77,SSW,200,1.0,0.0,91,0.00,,,0.00,meteohub,2013-02-22 09:07:00,
2013-02-22 04:12:00,19.4,17.2,30.76,WSW,257,0.0,0.0,91,0.00,,,0.00,meteohub,2013-02-22 09:12:00,
2013-02-22 04:17:00,19.4,17.2,30.76,WSW,256,0.0,2.0,91,0.00,,,0.00,meteohub,2013-02-22 09:17:00,
2013-02-22 04:22:00,19.4,17.2,30.75,ESE,115,0.0,2.0,91,0.00,,,0.00,meteohub,2013-02-22 09:22:00,
2013-02-22 04:27:00,19.4,17.2,30.74,ESE,115,0.0,0.0,91,0.00,,,0.00,meteohub,2013-02-22 09:27:00,
2013-02-22 04:32:00,19.4,17.2,30.74,ENE,59,0.0,0.0,91,0.00,,,0.00,meteohub,2013-02-22 09:32:00,
2013-02-22 04:37:00,19.4,17.2,30.73,East,92,0.0,3.0,91,0.00,,,0.00,meteohub,2013-02-22 09:37:00,
2013-02-22 04:42:00,19.4,17.2,30.73,NE,53,2.0,3.0,91,0.00,,,0.00,meteohub,2013-02-22 09:42:00,
2013-02-22 04:47:00,19.2,17.1,30.73,ESE,108,1.0,4.0,91,0.00,,,0.00,meteohub,2013-02-22 09:47:00,
2013-02-22 04:52:00,19.2,17.1,30.73,East,101,0.0,4.0,91,0.00,,,0.00,meteohub,2013-02-22 09:52:00,
2013-02-22 04:57:00,19.2,17.1,30.73,East,101,0.0,4.0,91,0.00,,,0.00,meteohub,2013-02-22 09:57:00,
2013-02-22 05:02:00,19.2,17.1,30.74,SSW,194,2.0,2.0,91,0.00,,,0.00,meteohub,2013-02-22 10:02:00,
2013-02-22 05:07:00,19.2,17.1,30.73,SE,145,2.0,3.0,91,0.00,,,0.00,meteohub,2013-02-22 10:07:00,
2013-02-22 05:12:00,19.2,17.1,30.74,East,86,2.0,3.0,91,0.00,,,0.00,meteohub,2013-02-22 10:12:00,
2013-02-22 05:17:00,19.2,17.1,30.74,SE,143,0.0,3.0,91,0.00,,,0.00,meteohub,2013-02-22 10:17:00,
2013-02-22 05:22:00,19.2,17.1,30.74,ESE,114,1.0,3.0,91,0.00,,,0.00,meteohub,2013-02-22 10:22:00,
2013-02-22 05:27:00,19.2,17.1,30.74,SSE,148,3.0,3.0,91,0.00,,,0.00,meteohub,2013-02-22 10:27:00,
2013-02-22 05:32:00,19.0,16.9,30.74,SSE,156,1.0,4.0,91,0.00,,,0.00,meteohub,2013-02-22 10:32:00,
2013-02-22 05:37:00,19.0,16.9,30.75,East,92,2.0,4.0,91,0.00,,,0.00,meteohub,2013-02-22 10:37:00,
2013-02-22 05:42:00,19.0,16.9,30.75,East,93,1.0,4.0,91,0.00,,,0.00,meteohub,2013-02-22 10:42:00,
2013-02-22 05:47:00,19.0,16.9,30.76,SE,125,3.0,3.0,91,0.00,,,0.00,meteohub,2013-02-22 10:47:00,
2013-02-22 05:52:00,19.0,16.9,30.75,ESE,110,4.0,5.0,91,0.00,,,0.00,meteohub,2013-02-22 10:52:00,
2013-02-22 05:57:00,19.0,16.9,30.75,ESE,113,3.0,6.0,91,0.00,,,0.00,meteohub,2013-02-22 10:57:00,
2013-02-22 06:02:00,18.9,16.7,30.75,SE,139,3.0,6.0,91,0.00,,,0.00,meteohub,2013-02-22 11:02:00,
2013-02-22 06:07:00,18.9,16.7,30.76,SE,136,5.0,6.0,91,0.00,,,0.00,meteohub,2013-02-22 11:07:00,
2013-02-22 06:12:00,18.9,16.7,30.77,SSE,163,4.0,5.0,91,0.00,,,0.00,meteohub,2013-02-22 11:12:00,
2013-02-22 06:17:00,18.9,16.7,30.76,SE,131,2.0,7.0,91,0.00,,,0.00,meteohub,2013-02-22 11:17:00,
2013-02-22 06:22:00,18.7,16.5,30.77,SSW,193,5.0,7.0,91,0.00,,,0.00,meteohub,2013-02-22 11:22:00,
2013-02-22 06:27:00,18.7,16.5,30.77,ESE,118,1.0,7.0,91,0.00,,,0.00,meteohub,2013-02-22 11:27:00,
2013-02-22 06:32:00,18.7,16.5,30.77,SSW,193,1.0,7.0,91,0.00,,,0.00,meteohub,2013-02-22 11:32:00,
2013-02-22 06:37:00,18.7,16.5,30.77,SSW,198,1.0,7.0,91,0.00,,,0.00,meteohub,2013-02-22 11:37:00,
2013-02-22 06:42:00,18.7,16.5,30.77,SSW,195,1.0,3.0,91,0.00,,,0.00,meteohub,2013-02-22 11:42:00,
2013-02-22 06:47:00,18.7,16.5,30.77,South,172,2.0,5.0,91,0.00,,,0.00,meteohub,2013-02-22 11:47:00,
2013-02-22 06:52:00,18.7,16.5,30.77,SSW,202,2.0,5.0,91,0.00,,,0.00,meteohub,2013-02-22 11:52:00,
2013-02-22 06:57:00,18.7,16.5,30.77,ESE,116,1.0,5.0,91,0.00,,,0.00,meteohub,2013-02-22 11:57:00,
2013-02-22 07:02:00,18.9,16.7,30.77,SSE,166,2.0,4.0,91,0.00,,,0.00,meteohub,2013-02-22 12:02:00,
2013-02-22 07:07:00,18.9,16.7,30.77,ESE,116,1.0,5.0,91,0.00,,,0.00,meteohub,2013-02-22 12:07:00,
2013-02-22 07:12:00,18.9,16.7,30.77,SSE,162,1.0,5.0,91,0.00,,,0.00,meteohub,2013-02-22 12:12:00,
2013-02-22 07:17:00,18.9,16.7,30.77,ESE,109,2.0,5.0,91,0.00,,,0.00,meteohub,2013-02-22 12:17:00,
2013-02-22 07:22:00,18.9,16.7,30.77,SE,125,2.0,5.0,91,0.00,,,0.00,meteohub,2013-02-22 12:22:00,
2013-02-22 07:27:00,19.0,16.9,30.77,SE,132,3.0,5.0,91,0.00,,,0.00,meteohub,2013-02-22 12:27:00,
2013-02-22 07:32:00,19.0,16.9,30.76,SE,142,1.0,5.0,91,0.00,,,0.00,meteohub,2013-02-22 12:32:00,
2013-02-22 07:37:00,19.0,16.9,30.77,SE,145,3.0,5.0,91,0.00,,,0.00,meteohub,2013-02-22 12:37:00,
2013-02-22 07:42:00,19.0,16.5,30.76,South,190,2.0,5.0,90,0.00,,,0.00,meteohub,2013-02-22 12:42:00,
2013-02-22 07:47:00,19.2,16.7,30.76,SE,138,4.0,5.0,90,0.00,,,0.00,meteohub,2013-02-22 12:47:00,
2013-02-22 07:52:00,19.2,16.7,30.76,SE,138,3.0,6.0,90,0.00,,,0.00,meteohub,2013-02-22 12:52:00,
2013-02-22 07:57:00,19.2,16.7,30.75,SSE,150,3.0,7.0,90,0.00,,,0.00,meteohub,2013-02-22 12:57:00,
2013-02-22 08:02:00,19.4,16.9,30.75,SSE,148,2.0,7.0,90,0.00,,,0.00,meteohub,2013-02-22 13:02:00,
2013-02-22 08:07:00,19.4,16.9,30.75,SSE,166,3.0,7.0,90,0.00,,,0.00,meteohub,2013-02-22 13:07:00,
2013-02-22 08:12:00,19.6,17.1,30.75,ESE,113,6.0,6.0,90,0.00,,,0.00,meteohub,2013-02-22 13:12:00,
2013-02-22 08:17:00,19.6,17.1,30.75,SSE,160,4.0,8.0,90,0.00,,,0.00,meteohub,2013-02-22 13:17:00,
2013-02-22 08:22:00,19.6,17.1,30.74,ESE,116,4.0,8.0,90,0.00,,,0.00,meteohub,2013-02-22 13:22:00,
2013-02-22 08:27:00,19.8,17.2,30.74,SSE,163,4.0,8.0,90,0.00,,,0.00,meteohub,2013-02-22 13:27:00,
2013-02-22 08:32:00,19.8,17.2,30.74,SSE,155,7.0,9.0,90,0.00,,,0.00,meteohub,2013-02-22 13:32:00,
2013-02-22 08:37:00,19.8,17.2,30.74,SSE,165,6.0,9.0,90,0.00,,,0.00,meteohub,2013-02-22 13:37:00,
2013-02-22 08:42:00,19.9,17.4,30.74,WSW,256,4.0,10.0,90,0.00,,,0.00,meteohub,2013-02-22 13:42:00,
2013-02-22 08:47:00,20.1,17.4,30.74,SSE,152,5.0,10.0,89,0.00,,,0.00,meteohub,2013-02-22 13:47:00,
2013-02-22 08:52:00,20.3,17.6,30.73,SE,146,2.0,10.0,89,0.00,,,0.00,meteohub,2013-02-22 13:52:00,
2013-02-22 08:57:00,20.5,17.8,30.73,ESE,113,5.0,10.0,89,0.00,,,0.00,meteohub,2013-02-22 13:57:00,
2013-02-22 09:02:00,20.7,18.0,30.72,SE,129,5.0,10.0,89,0.00,,,0.00,meteohub,2013-02-22 14:02:00,
2013-02-22 09:07:00,20.8,18.1,30.72,SSE,162,6.0,9.0,89,0.00,,,0.00,meteohub,2013-02-22 14:07:00,
2013-02-22 09:12:00,21.2,18.5,30.72,SSW,198,3.0,9.0,89,0.00,,,0.00,meteohub,2013-02-22 14:12:00,
2013-02-22 09:17:00,21.6,18.5,30.72,SSE,159,6.0,10.0,88,0.00,,,0.00,meteohub,2013-02-22 14:17:00,
2013-02-22 09:22:00,21.7,18.7,30.71,SE,132,3.0,10.0,88,0.00,,,0.00,meteohub,2013-02-22 14:22:00,
2013-02-22 09:27:00,21.7,18.5,30.72,SSE,161,7.0,10.0,87,0.00,,,0.00,meteohub,2013-02-22 14:27:00,
2013-02-22 09:32:00,21.7,18.5,30.72,SSE,158,5.0,9.0,87,0.00,,,0.00,meteohub,2013-02-22 14:32:00,
2013-02-22 09:37:00,21.9,18.7,30.72,ESE,120,6.0,9.0,87,0.00,,,0.00,meteohub,2013-02-22 14:37:00,
2013-02-22 09:42:00,21.9,18.3,30.72,South,191,5.0,9.0,86,0.00,,,0.00,meteohub,2013-02-22 14:42:00,
2013-02-22 09:47:00,22.3,19.0,30.73,SE,142,5.0,8.0,87,0.00,,,0.00,meteohub,2013-02-22 14:47:00,
2013-02-22 09:52:00,22.5,18.9,30.73,ESE,120,4.0,10.0,86,0.00,,,0.00,meteohub,2013-02-22 14:52:00,
2013-02-22 09:57:00,22.6,19.0,30.72,SSE,148,8.0,11.0,86,0.00,,,0.00,meteohub,2013-02-22 14:57:00,
2013-02-22 10:02:00,22.6,18.9,30.72,SE,141,6.0,11.0,85,0.00,,,0.00,meteohub,2013-02-22 15:02:00,
2013-02-22 10:07:00,23.0,19.2,30.71,South,172,4.0,11.0,85,0.00,,,0.00,meteohub,2013-02-22 15:07:00,
2013-02-22 10:12:00,23.7,19.9,30.71,SE,136,8.0,11.0,85,0.00,,,0.00,meteohub,2013-02-22 15:12:00,
2013-02-22 10:17:00,24.4,19.9,30.71,SE,128,7.0,13.0,83,0.00,,,0.00,meteohub,2013-02-22 15:17:00,
2013-02-22 10:22:00,25.2,20.1,30.71,SE,141,5.0,13.0,81,0.00,,,0.00,meteohub,2013-02-22 15:22:00,
2013-02-22 10:27:00,25.3,20.3,30.70,North,5,9.0,13.0,81,0.00,,,0.00,meteohub,2013-02-22 15:27:00,
2013-02-22 10:32:00,25.3,20.3,30.70,SE,134,4.0,13.0,81,0.00,,,0.00,meteohub,2013-02-22 15:32:00,
2013-02-22 10:37:00,25.7,20.5,30.71,SE,133,10.0,13.0,80,0.00,,,0.00,meteohub,2013-02-22 15:37:00,
2013-02-22 10:42:00,25.9,20.3,30.69,ESE,123,5.0,12.0,79,0.00,,,0.00,meteohub,2013-02-22 15:42:00,
2013-02-22 10:47:00,26.2,20.7,30.69,SSE,152,10.0,14.0,79,0.00,,,0.00,meteohub,2013-02-22 15:47:00,
2013-02-22 10:52:00,27.0,21.0,30.68,SSE,152,7.0,14.0,78,0.00,,,0.00,meteohub,2013-02-22 15:52:00,
2013-02-22 10:57:00,27.0,20.7,30.68,South,176,7.0,14.0,77,0.00,,,0.00,meteohub,2013-02-22 15:57:00,
2013-02-22 11:02:00,27.5,21.2,30.67,ESE,122,7.0,16.0,77,0.00,,,0.00,meteohub,2013-02-22 16:02:00,
2013-02-22 11:07:00,27.3,20.8,30.67,SE,139,8.0,16.0,76,0.00,,,0.00,meteohub,2013-02-22 16:07:00,
2013-02-22 11:12:00,27.5,21.0,30.66,ESE,114,8.0,16.0,76,0.00,,,0.00,meteohub,2013-02-22 16:12:00,
2013-02-22 11:17:00,27.9,21.0,30.66,SE,144,6.0,16.0,75,0.00,,,0.00,meteohub,2013-02-22 16:17:00,
2013-02-22 11:22:00,27.9,20.7,30.67,SSE,165,8.0,16.0,74,0.00,,,0.00,meteohub,2013-02-22 16:22:00,
2013-02-22 11:27:00,28.0,21.2,30.66,SE,131,12.0,16.0,75,0.00,,,0.00,meteohub,2013-02-22 16:27:00,
2013-02-22 11:32:00,28.2,21.4,30.65,SSE,152,4.0,16.0,75,0.00,,,0.00,meteohub,2013-02-22 16:32:00,
2013-02-22 11:37:00,28.4,21.2,30.65,SE,138,7.0,15.0,74,0.00,,,0.00,meteohub,2013-02-22 16:37:00,
2013-02-22 11:42:00,28.4,21.2,30.65,SE,145,7.0,17.0,74,0.00,,,0.00,meteohub,2013-02-22 16:42:00,
2013-02-22 11:47:00,28.6,21.4,30.65,ESE,115,5.0,17.0,74,0.00,,,0.00,meteohub,2013-02-22 16:47:00,
2013-02-22 11:52:00,28.9,21.4,30.64,ESE,120,8.0,17.0,73,0.00,,,0.00,meteohub,2013-02-22 16:52:00,
2013-02-22 11:57:00,29.1,21.2,30.64,SSE,148,9.0,13.0,72,0.00,,,0.00,meteohub,2013-02-22 16:57:00,
2013-02-22 12:02:00,29.3,21.4,30.64,SE,132,15.0,15.0,72,0.00,,,0.00,meteohub,2013-02-22 17:02:00,
2013-02-22 12:07:00,29.3,21.4,30.63,South,180,9.0,20.0,72,0.00,,,0.00,meteohub,2013-02-22 17:07:00,
2013-02-22 12:12:00,29.5,21.6,30.63,SSE,148,13.0,20.0,72,0.00,,,0.00,meteohub,2013-02-22 17:12:00,
2013-02-22 12:17:00,29.7,21.4,30.62,SSW,195,9.0,20.0,71,0.00,,,0.00,meteohub,2013-02-22 17:17:00,
2013-02-22 12:22:00,29.8,21.6,30.61,SE,137,11.0,18.0,71,0.00,,,0.00,meteohub,2013-02-22 17:22:00,
2013-02-22 12:27:00,30.0,21.0,30.61,South,169,12.0,19.0,69,0.00,,,0.00,meteohub,2013-02-22 17:27:00,
2013-02-22 12:32:00,30.4,21.4,30.61,ESE,111,11.0,22.0,69,0.00,,,0.00,meteohub,2013-02-22 17:32:00,
2013-02-22 12:37:00,30.6,21.9,30.60,ENE,73,9.0,22.0,70,0.00,,,0.00,meteohub,2013-02-22 17:37:00,
2013-02-22 12:42:00,30.7,21.4,30.60,SSE,162,12.0,22.0,68,0.00,,,0.00,meteohub,2013-02-22 17:42:00,
2013-02-22 12:47:00,30.7,21.7,30.60,SE,129,7.0,18.0,69,0.00,,,0.00,meteohub,2013-02-22 17:47:00,
2013-02-22 12:52:00,31.1,21.7,30.60,ESE,123,7.0,18.0,68,0.00,,,0.00,meteohub,2013-02-22 17:52:00,
2013-02-22 12:57:00,30.9,21.2,30.59,SSE,165,13.0,19.0,67,0.00,,,0.00,meteohub,2013-02-22 17:57:00,
2013-02-22 13:02:00,31.3,21.9,30.58,SSE,153,8.0,19.0,68,0.00,,,0.00,meteohub,2013-02-22 18:02:00,
2013-02-22 13:07:00,31.6,22.3,30.58,ESE,120,15.0,20.0,68,0.00,,,0.00,meteohub,2013-02-22 18:07:00,
2013-02-22 13:12:00,31.8,21.7,30.58,ESE,103,9.0,22.0,66,0.00,,,0.00,meteohub,2013-02-22 18:12:00,
2013-02-22 13:17:00,32.2,22.1,30.58,SSE,161,12.0,22.0,66,0.00,,,0.00,meteohub,2013-02-22 18:17:00,
2013-02-22 13:22:00,32.5,22.5,30.58,SE,143,7.0,22.0,66,0.00,,,0.00,meteohub,2013-02-22 18:22:00,
2013-02-22 13:27:00,32.7,22.3,30.57,SE,145,7.0,20.0,65,0.00,,,0.00,meteohub,2013-02-22 18:27:00,
2013-02-22 13:32:00,33.1,22.3,30.57,SSW,212,8.0,16.0,64,0.00,,,0.00,meteohub,2013-02-22 18:32:00,
2013-02-22 13:37:00,33.8,23.0,30.57,SSE,157,9.0,15.0,64,0.00,,,0.00,meteohub,2013-02-22 18:37:00,
2013-02-22 13:42:00,34.0,22.6,30.56,SE,145,7.0,15.0,63,0.00,,,0.00,meteohub,2013-02-22 18:42:00,
2013-02-22 13:47:00,34.0,22.3,30.56,ESE,123,13.0,15.0,62,0.00,,,0.00,meteohub,2013-02-22 18:47:00,
2013-02-22 13:52:00,33.8,22.1,30.56,SSE,148,7.0,18.0,62,0.00,,,0.00,meteohub,2013-02-22 18:52:00,
2013-02-22 13:57:00,34.0,22.3,30.56,South,187,12.0,18.0,62,0.00,,,0.00,meteohub,2013-02-22 18:57:00,
2013-02-22 14:02:00,33.6,21.2,30.56,SW,217,12.0,18.0,60,0.00,,,0.00,meteohub,2013-02-22 19:02:00,
2013-02-22 14:07:00,33.6,21.6,30.57,SSW,210,11.0,17.0,61,0.00,,,0.00,meteohub,2013-02-22 19:07:00,
2013-02-22 14:12:00,33.6,21.6,30.56,ESE,105,15.0,17.0,61,0.00,,,0.00,meteohub,2013-02-22 19:12:00,
2013-02-22 14:17:00,33.4,21.4,30.57,SSW,193,7.0,19.0,61,0.00,,,0.00,meteohub,2013-02-22 19:17:00,
2013-02-22 14:22:00,33.4,21.4,30.57,SE,141,8.0,19.0,61,0.00,,,0.00,meteohub,2013-02-22 19:22:00,
2013-02-22 14:27:00,33.4,21.7,30.56,South,181,6.0,17.0,62,0.00,,,0.00,meteohub,2013-02-22 19:27:00,
2013-02-22 14:32:00,33.3,21.7,30.56,SSW,205,9.0,14.0,62,0.00,,,0.00,meteohub,2013-02-22 19:32:00,
2013-02-22 14:37:00,33.1,21.6,30.56,South,186,9.0,20.0,62,0.00,,,0.00,meteohub,2013-02-22 19:37:00,
2013-02-22 14:42:00,33.3,21.7,30.56,SE,126,15.0,20.0,62,0.00,,,0.00,meteohub,2013-02-22 19:42:00,
2013-02-22 14:47:00,33.4,21.7,30.56,East,87,10.0,20.0,62,0.00,,,0.00,meteohub,2013-02-22 19:47:00,
2013-02-22 14:52:00,33.4,21.7,30.56,NNE,23,9.0,19.0,62,0.00,,,0.00,meteohub,2013-02-22 19:52:00,
2013-02-22 14:57:00,33.3,21.7,30.56,East,86,14.0,19.0,62,0.00,,,0.00,meteohub,2013-02-22 19:57:00,
2013-02-22 15:02:00,33.3,21.7,30.55,South,191,16.0,19.0,62,0.00,,,0.00,meteohub,2013-02-22 20:02:00,
2013-02-22 15:07:00,33.3,22.1,30.55,SE,139,11.0,19.0,63,0.00,,,0.00,meteohub,2013-02-22 20:07:00,
2013-02-22 15:12:00,33.3,22.1,30.55,SE,131,10.0,21.0,63,0.00,,,0.00,meteohub,2013-02-22 20:12:00,
2013-02-22 15:17:00,33.1,22.6,30.55,ENE,67,13.0,21.0,65,0.00,,,0.00,meteohub,2013-02-22 20:17:00,
2013-02-22 15:22:00,33.1,22.6,30.55,SSW,198,6.0,21.0,65,0.00,,,0.00,meteohub,2013-02-22 20:22:00,
2013-02-22 15:27:00,33.1,22.6,30.54,SSW,194,6.0,21.0,65,0.00,,,0.00,meteohub,2013-02-22 20:27:00,
2013-02-22 15:32:00,33.1,22.6,30.55,South,176,11.0,21.0,65,0.00,,,0.00,meteohub,2013-02-22 20:32:00,
2013-02-22 15:37:00,33.1,22.3,30.55,SE,134,17.0,17.0,64,0.00,,,0.00,meteohub,2013-02-22 20:37:00,
2013-02-22 15:42:00,33.3,22.8,30.54,SSE,153,10.0,19.0,65,0.00,,,0.00,meteohub,2013-02-22 20:42:00,
2013-02-22 15:47:00,33.3,22.5,30.54,SW,226,8.0,19.0,64,0.00,,,0.00,meteohub,2013-02-22 20:47:00,
2013-02-22 15:52:00,33.3,22.5,30.53,SE,125,7.0,20.0,64,0.00,,,0.00,meteohub,2013-02-22 20:52:00,
2013-02-22 15:57:00,33.4,22.6,30.54,South,188,15.0,20.0,64,0.00,,,0.00,meteohub,2013-02-22 20:57:00,
2013-02-22 16:02:00,33.4,22.6,30.54,South,181,7.0,21.0,64,0.00,,,0.00,meteohub,2013-02-22 21:02:00,
2013-02-22 16:07:00,33.4,23.0,30.53,SE,139,15.0,21.0,65,0.00,,,0.00,meteohub,2013-02-22 21:07:00,
2013-02-22 16:12:00,33.4,22.6,30.53,SSE,166,16.0,21.0,64,0.00,,,0.00,meteohub,2013-02-22 21:12:00,
2013-02-22 16:17:00,33.4,23.0,30.53,SSE,157,13.0,25.0,65,0.00,,,0.00,meteohub,2013-02-22 21:17:00,
2013-02-22 16:22:00,33.4,23.0,30.53,East,89,11.0,25.0,65,0.00,,,0.00,meteohub,2013-02-22 21:22:00,
2013-02-22 16:27:00,33.4,23.4,30.53,SE,132,13.0,25.0,66,0.00,,,0.00,meteohub,2013-02-22 21:27:00,
2013-02-22 16:32:00,33.4,23.4,30.52,NE,51,13.0,23.0,66,0.00,,,0.00,meteohub,2013-02-22 21:32:00,
2013-02-22 16:37:00,33.3,23.5,30.52,SSE,166,13.0,23.0,67,0.00,,,0.00,meteohub,2013-02-22 21:37:00,
2013-02-22 16:42:00,33.3,23.2,30.52,SE,131,16.0,23.0,66,0.00,,,0.00,meteohub,2013-02-22 21:42:00,
2013-02-22 16:47:00,33.4,23.0,30.53,SSE,162,7.0,24.0,65,0.00,,,0.00,meteohub,2013-02-22 21:47:00,
2013-02-22 16:52:00,33.4,23.0,30.53,South,184,19.0,24.0,65,0.00,,,0.00,meteohub,2013-02-22 21:52:00,
2013-02-22 16:57:00,33.4,23.0,30.52,SSE,152,19.0,24.0,65,0.00,,,0.00,meteohub,2013-02-22 21:57:00,
2013-02-22 17:02:00,33.4,23.4,30.52,SSE,157,18.0,26.0,66,0.00,,,0.00,meteohub,2013-02-22 22:02:00,
2013-02-22 17:07:00,33.4,23.4,30.52,ESE,112,12.0,28.0,66,0.00,,,0.00,meteohub,2013-02-22 22:07:00,
2013-02-22 17:12:00,33.4,23.4,30.52,SE,141,9.0,28.0,66,0.00,,,0.00,meteohub,2013-02-22 22:12:00,
2013-02-22 17:17:00,33.3,23.5,30.52,SSE,153,12.0,28.0,67,0.00,,,0.00,meteohub,2013-02-22 22:17:00,
2013-02-22 17:22:00,33.3,23.5,30.52,SSW,197,10.0,25.0,67,0.00,,,0.00,meteohub,2013-02-22 22:22:00,
2013-02-22 17:27:00,33.3,23.5,30.52,SE,134,11.0,23.0,67,0.00,,,0.00,meteohub,2013-02-22 22:27:00,
2013-02-22 17:32:00,33.3,23.2,30.52,South,184,14.0,23.0,66,0.00,,,0.00,meteohub,2013-02-22 22:32:00,
2013-02-22 17:37:00,33.3,23.5,30.51,SE,145,11.0,23.0,67,0.00,,,0.00,meteohub,2013-02-22 22:37:00,
2013-02-22 17:42:00,33.3,23.5,30.51,SSE,150,16.0,20.0,67,0.00,,,0.00,meteohub,2013-02-22 22:42:00,
2013-02-22 17:47:00,33.1,23.4,30.51,SE,138,14.0,22.0,67,0.00,,,0.00,meteohub,2013-02-22 22:47:00,
2013-02-22 17:52:00,33.1,23.4,30.51,SE,141,9.0,22.0,67,0.00,,,0.00,meteohub,2013-02-22 22:52:00,
2013-02-22 17:57:00,33.1,23.4,30.51,SSW,195,10.0,22.0,67,0.00,,,0.00,meteohub,2013-02-22 22:57:00,
2013-02-22 18:02:00,33.1,23.0,30.51,ESE,107,14.0,27.0,66,0.00,,,0.00,meteohub,2013-02-22 23:02:00,
2013-02-22 18:07:00,33.1,23.0,30.51,SE,125,18.0,27.0,66,0.00,,,0.00,meteohub,2013-02-22 23:07:00,
2013-02-22 18:12:00,33.1,23.0,30.51,South,187,16.0,27.0,66,0.00,,,0.00,meteohub,2013-02-22 23:12:00,
2013-02-22 18:17:00,33.1,23.4,30.51,South,170,13.0,27.0,67,0.00,,,0.00,meteohub,2013-02-22 23:17:00,
2013-02-22 18:22:00,32.9,22.8,30.51,SSE,162,13.0,27.0,66,0.00,,,0.00,meteohub,2013-02-22 23:22:00,
2013-02-22 18:27:00,32.9,23.2,30.51,SE,146,12.0,27.0,67,0.00,,,0.00,meteohub,2013-02-22 23:27:00,
2013-02-22 18:32:00,32.7,23.0,30.51,South,179,10.0,27.0,67,0.00,,,0.00,meteohub,2013-02-22 23:32:00,
2013-02-22 18:37:00,32.7,23.0,30.51,SE,142,10.0,28.0,67,0.00,,,0.00,meteohub,2013-02-22 23:37:00,
2013-02-22 18:42:00,32.7,23.4,30.51,SSW,203,13.0,28.0,68,0.00,,,0.00,meteohub,2013-02-22 23:42:00,
2013-02-22 18:47:00,32.5,23.5,30.51,SSE,159,19.0,25.0,69,0.00,,,0.00,meteohub,2013-02-22 23:47:00,
2013-02-22 18:52:00,32.5,23.2,30.51,SE,145,16.0,27.0,68,0.00,,,0.00,meteohub,2013-02-22 23:52:00,
2013-02-22 18:57:00,32.4,23.4,30.51,SSE,152,14.0,29.0,69,0.00,,,0.00,meteohub,2013-02-22 23:57:00,
2013-02-22 19:02:00,32.4,23.4,30.50,South,191,15.0,29.0,69,0.00,,,0.00,meteohub,2013-02-23 00:02:00,
2013-02-22 19:07:00,32.4,23.4,30.50,South,187,15.0,29.0,69,0.00,,,0.00,meteohub,2013-02-23 00:07:00,
2013-02-22 19:12:00,32.2,23.5,30.50,SSE,165,19.0,25.0,70,0.00,,,0.00,meteohub,2013-02-23 00:12:00,
2013-02-22 19:17:00,32.2,23.5,30.50,SE,145,12.0,27.0,70,0.00,,,0.00,meteohub,2013-02-23 00:17:00,
2013-02-22 19:22:00,32.0,23.4,30.50,SE,146,14.0,27.0,70,0.00,,,0.00,meteohub,2013-02-23 00:22:00,
2013-02-22 19:27:00,32.0,23.7,30.50,SSE,165,27.0,27.0,71,0.00,,,0.00,meteohub,2013-02-23 00:27:00,
2013-02-22 19:32:00,31.8,23.5,30.50,SE,141,17.0,30.0,71,0.00,,,0.00,meteohub,2013-02-23 00:32:00,
2013-02-22 19:37:00,31.8,23.5,30.50,ENE,77,17.0,30.0,71,0.00,,,0.00,meteohub,2013-02-23 00:37:00,
2013-02-22 19:42:00,31.8,23.5,30.50,SSE,167,18.0,30.0,71,0.00,,,0.00,meteohub,2013-02-23 00:42:00,
2013-02-22 19:47:00,31.8,23.9,30.50,South,170,14.0,31.0,72,0.00,,,0.00,meteohub,2013-02-23 00:47:00,
2013-02-22 19:52:00,31.6,23.7,30.50,South,186,11.0,31.0,72,0.00,,,0.00,meteohub,2013-02-23 00:52:00,
2013-02-22 19:57:00,31.6,23.7,30.50,SSE,151,21.0,29.0,72,0.00,,,0.00,meteohub,2013-02-23 00:57:00,
2013-02-22 20:02:00,31.6,23.7,30.50,SSW,197,14.0,27.0,72,0.00,,,0.00,meteohub,2013-02-23 01:02:00,
2013-02-22 20:07:00,31.6,23.7,30.50,South,181,15.0,26.0,72,0.00,,,0.00,meteohub,2013-02-23 01:07:00,
2013-02-22 20:12:00,31.6,23.7,30.50,SSE,167,16.0,25.0,72,0.00,,,0.00,meteohub,2013-02-23 01:12:00,
2013-02-22 20:17:00,31.6,23.7,30.50,SSW,200,12.0,25.0,72,0.00,,,0.00,meteohub,2013-02-23 01:17:00,
2013-02-22 20:22:00,31.6,23.7,30.50,South,191,12.0,24.0,72,0.00,,,0.00,meteohub,2013-02-23 01:22:00,
2013-02-22 20:27:00,31.6,23.7,30.50,South,186,19.0,27.0,72,0.00,,,0.00,meteohub,2013-02-23 01:27:00,
2013-02-22 20:32:00,31.6,23.7,30.50,SSE,165,22.0,34.0,72,0.00,,,0.00,meteohub,2013-02-23 01:32:00,
2013-02-22 20:37:00,31.6,23.7,30.50,SSW,200,16.0,34.0,72,0.00,,,0.00,meteohub,2013-02-23 01:37:00,
2013-02-22 20:42:00,31.6,23.7,30.49,SSW,204,12.0,34.0,72,0.00,,,0.00,meteohub,2013-02-23 01:42:00,
2013-02-22 20:47:00,31.6,23.7,30.49,SSW,200,16.0,32.0,72,0.00,,,0.00,meteohub,2013-02-23 01:47:00,
2013-02-22 20:52:00,31.6,23.7,30.50,SSW,208,26.0,32.0,72,0.00,,,0.00,meteohub,2013-02-23 01:52:00,
2013-02-22 20:57:00,31.6,23.7,30.49,South,169,15.0,36.0,72,0.00,,,0.00,meteohub,2013-02-23 01:57:00,
2013-02-22 21:02:00,31.6,23.7,30.49,ESE,109,20.0,36.0,72,0.00,,,0.00,meteohub,2013-02-23 02:02:00,
2013-02-22 21:07:00,31.6,23.7,30.49,SSW,212,12.0,36.0,72,0.00,,,0.00,meteohub,2013-02-23 02:07:00,
2013-02-22 21:12:00,31.6,23.7,30.49,SSE,166,20.0,30.0,72,0.00,,,0.00,meteohub,2013-02-23 02:12:00,
2013-02-22 21:17:00,31.6,23.9,30.49,SE,127,14.0,30.0,73,0.00,,,0.00,meteohub,2013-02-23 02:17:00,
2013-02-22 21:22:00,31.5,23.9,30.50,South,173,14.0,29.0,73,0.00,,,0.00,meteohub,2013-02-23 02:22:00,
2013-02-22 21:27:00,31.5,23.9,30.50,SE,141,20.0,29.0,73,0.00,,,0.00,meteohub,2013-02-23 02:27:00,
2013-02-22 21:32:00,31.5,23.9,30.50,South,187,12.0,23.0,73,0.00,,,0.00,meteohub,2013-02-23 02:32:00,
2013-02-22 21:37:00,31.6,23.9,30.50,SSW,195,22.0,25.0,73,0.00,,,0.00,meteohub,2013-02-23 02:37:00,
2013-02-22 21:42:00,31.5,23.9,30.50,SSE,148,17.0,28.0,73,0.00,,,0.00,meteohub,2013-02-23 02:42:00,
2013-02-22 21:47:00,31.6,23.9,30.50,SSE,157,8.0,28.0,73,0.00,,,0.00,meteohub,2013-02-23 02:47:00,
2013-02-22 21:52:00,31.6,23.9,30.51,SE,133,9.0,30.0,73,0.00,,,0.00,meteohub,2013-02-23 02:52:00,
2013-02-22 21:57:00,31.5,24.1,30.50,SSE,163,17.0,30.0,74,0.00,,,0.00,meteohub,2013-02-23 02:57:00,
2013-02-22 22:02:00,31.5,24.1,30.50,SSE,160,11.0,24.0,74,0.00,,,0.00,meteohub,2013-02-23 03:02:00,
2013-02-22 22:07:00,31.5,24.1,30.50,SSE,160,13.0,24.0,74,0.00,,,0.00,meteohub,2013-02-23 03:07:00,
2013-02-22 22:12:00,31.5,24.4,30.50,South,172,9.0,22.0,75,0.00,,,0.00,meteohub,2013-02-23 03:12:00,
2013-02-22 22:17:00,31.5,24.4,30.50,SE,129,23.0,23.0,75,0.00,,,0.00,meteohub,2013-02-23 03:17:00,
2013-02-22 22:22:00,31.3,25.0,30.50,SSW,203,10.0,26.0,77,0.00,,,0.00,meteohub,2013-02-23 03:22:00,
2013-02-22 22:27:00,30.9,24.8,30.50,South,183,17.0,26.0,78,0.00,,,0.00,meteohub,2013-02-23 03:27:00,
2013-02-22 22:32:00,30.9,24.8,30.50,SE,143,17.0,26.0,78,0.00,,,0.00,meteohub,2013-02-23 03:32:00,
2013-02-22 22:37:00,30.7,25.3,30.50,ESE,117,16.0,27.0,80,0.00,,,0.00,meteohub,2013-02-23 03:37:00,
2013-02-22 22:42:00,30.4,25.5,30.49,SE,139,23.0,27.0,82,0.00,,,0.00,meteohub,2013-02-23 03:42:00,
2013-02-22 22:47:00,30.0,25.5,30.48,SE,146,14.0,27.0,83,0.00,,,0.00,meteohub,2013-02-23 03:47:00,
2013-02-22 22:52:00,30.0,25.5,30.48,SW,215,9.0,27.0,83,0.00,,,0.00,meteohub,2013-02-23 03:52:00,
2013-02-22 22:57:00,30.2,25.2,30.48,SSE,150,25.0,27.0,81,0.00,,,0.00,meteohub,2013-02-23 03:57:00,
2013-02-22 23:02:00,30.4,25.0,30.47,SSW,210,17.0,26.0,80,0.00,,,0.00,meteohub,2013-02-23 04:02:00,
2013-02-22 23:07:00,30.6,24.8,30.47,SSE,162,12.0,26.0,79,0.00,,,0.00,meteohub,2013-02-23 04:07:00,
2013-02-22 23:12:00,30.6,24.8,30.47,SSE,167,17.0,26.0,79,0.00,,,0.00,meteohub,2013-02-23 04:12:00,
2013-02-22 23:17:00,30.6,24.8,30.46,SSE,155,14.0,27.0,79,0.00,,,0.00,meteohub,2013-02-23 04:17:00,
2013-02-22 23:22:00,30.4,24.6,30.46,SSW,194,15.0,27.0,79,0.00,,,0.00,meteohub,2013-02-23 04:22:00,
2013-02-22 23:27:00,30.6,24.4,30.45,South,171,16.0,27.0,78,0.00,,,0.00,meteohub,2013-02-23 04:27:00,
2013-02-22 23:32:00,30.6,24.3,30.45,South,174,11.0,24.0,77,0.00,,,0.00,meteohub,2013-02-23 04:32:00,
2013-02-22 23:37:00,30.7,24.4,30.45,SSE,166,17.0,24.0,77,0.00,,,0.00,meteohub,2013-02-23 04:37:00,
2013-02-22 23:42:00,30.9,24.3,30.45,SW,218,15.0,22.0,76,0.00,,,0.00,meteohub,2013-02-23 04:42:00,
2013-02-22 23:47:00,30.9,24.3,30.45,South,172,13.0,22.0,76,0.00,,,0.00,meteohub,2013-02-23 04:47:00,
2013-02-22 23:52:00,31.3,24.3,30.45,SSE,150,18.0,24.0,75,0.00,,,0.00,meteohub,2013-02-23 04:52:00,
2013-02-22 23:57:00,31.3,24.3,30.45,SSW,195,16.0,24.0,75,0.00,,,0.00,meteohub,2013-02-23 04:57:00,